Weather History for Wautoma, WI

Change the Weather History Date:

Monday, October 14, 2013

  Actual Average (KPCZ) Record (KPCZ)
Temperature  
Mean Temperature 44 °F -  
Max Temperature 61 °F 61 °F 83 °F (1962)
Min Temperature 28 °F 38 °F 23 °F (1979)
Degree Days  
Heating Degree Days 22    
Moisture  
Dew Point 36 °F    
Average Humidity 83    
Maximum Humidity 100    
Minimum Humidity 42    
Precipitation  
Precipitation 0.00 in - - ()
Sea Level Pressure  
Sea Level Pressure 30.36 in    
Wind  
Wind Speed 2 mph (East)    
Max Wind Speed 9 mph    
Max Gust Speed -    
Visibility 10 miles    
Events      
Averages and records for this station are not official NWS values.
T = Trace of Precipitation, MM = Missing Value Source: NWS Daily Summary

Daily Weather History Graph

Daily Weather History Graph

Search for Another Location

Airport:

Trip Planner

Search our weather history database for the weather conditions in past years. The results will help you decide how hot, cold, wet, or windy it might be!

Date:

Astronomy

Oct. 14, 2013 Rise Set
Actual Time 7:10 AM CDT 6:14 PM CDT
Civil Twilight 6:41 AM CDT 6:43 PM CDT
Nautical Twilight 6:08 AM CDT 7:17 PM CDT
Astronomical Twilight 5:34 AM CDT 7:50 PM CDT
Moon 3:51 PM CDT (10/14) 2:18 AM CDT (10/14)
Length of Visible Light 12h 01m
Length of Day
11h 03m
Waxing Gibbous, 79% of the Moon is Illuminated
Oct 14
Waxing Gibbous
Oct 18
Full
Oct 26
Last Quarter
Nov 3
New
Nov 9
First Quarter

Hourly Weather History & Observations

Time (CDT) Temp. Windchill Dew Point Humidity Pressure Visibility Wind Dir Wind Speed Gust Speed Precip Events Conditions
12:56 AM 32.9 °F - 32.9 °F 100% 30.43 in 10.0 mi Calm Calm - N/A   Clear
1:56 AM 32.0 °F - 32.0 °F 100% 30.45 in 10.0 mi Calm Calm - N/A   Clear
2:56 AM 31.1 °F - 31.1 °F 100% 30.44 in 10.0 mi Calm Calm - N/A   Clear
3:56 AM 30.0 °F - 30.0 °F 100% 30.44 in 10.0 mi Calm Calm - N/A   Clear
4:56 AM 30.0 °F - 30.0 °F 100% 30.45 in 10.0 mi Calm Calm - N/A   Clear
5:56 AM 29.1 °F - 29.1 °F 100% 30.45 in 10.0 mi Calm Calm - N/A   Clear
6:56 AM 28.0 °F - 28.0 °F 100% 30.45 in 10.0 mi Calm Calm - N/A   Clear
7:56 AM 32.0 °F - 32.0 °F 100% 30.45 in 10.0 mi Calm Calm - N/A   Clear
8:56 AM 41.0 °F 39.0 °F 41.0 °F 100% 30.44 in 10.0 mi NE 3.5 mph - N/A   Clear
9:56 AM 48.9 °F - 41.0 °F 74% 30.43 in 10.0 mi Calm Calm - N/A   Clear
10:56 AM 55.9 °F - 39.9 °F 55% 30.42 in 10.0 mi ESE 6.9 mph - N/A   Clear
11:56 AM 59.0 °F - 36.0 °F 42% 30.41 in 10.0 mi East 9.2 mph - N/A   Clear
12:56 PM 59.0 °F - 37.4 °F 45% 30.37 in 10.0 mi ESE 8.1 mph - N/A   Clear
5:56 PM 54.9 °F - 41.9 °F 62% 30.24 in 10.0 mi East 4.6 mph - N/A   Clear
6:56 PM 52.9 °F - 39.9 °F 61% 30.25 in 10.0 mi ESE 6.9 mph - N/A   Clear
7:56 PM 50.0 °F - 39.9 °F 68% 30.25 in 10.0 mi ESE 4.6 mph - N/A   Clear
8:56 PM 46.9 °F - 39.9 °F 77% 30.24 in 10.0 mi East 4.6 mph - N/A   Clear
9:56 PM 45.9 °F 42.9 °F 41.0 °F 83% 30.21 in 10.0 mi East 5.8 mph - N/A   Clear
10:56 PM 45.0 °F 41.8 °F 41.9 °F 89% 30.19 in 10.0 mi East 5.8 mph - N/A   Clear
11:56 PM 43.9 °F 41.3 °F 43.9 °F 100% 30.15 in 10.0 mi ENE 4.6 mph - N/A   Clear